Haines, AK

10:22 PM AKST on December 11, 2017 (GMT -0900)
Haines

Weather History for PAHN - September, 2012

Change the Weather History Date:

Sunday, September 23, 2012

  Actual Average Record
Temperature  
Mean Temperature 54 °F -  
Max Temperature 57 °F 51 °F 68 °F (1984)
Min Temperature 51 °F 42 °F 32 °F (1984)
Degree Days  
Heating Degree Days 11    
Growing Degree Days 4 (Base 50)    
Moisture  
Dew Point 50 °F    
Average Humidity 86    
Maximum Humidity 94    
Minimum Humidity 74    
Precipitation  
Precipitation 0.05 in - - ()
Sea Level Pressure  
Sea Level Pressure 29.97 in    
Wind  
Wind Speed 13 mph (East)    
Max Wind Speed 18 mph    
Max Gust Speed 32 mph    
Visibility 10 miles    
Events Rain    
Averages and records for this station are not official NWS values.
T = Trace of Precipitation, MM = Missing Value Source: NWS Daily Summary

Daily Weather History Graph

Daily Weather History Graph

Search for Another Location

Airport or City:

Trip Planner

Search our weather history database for the weather conditions in past years. The results will help you decide how hot, cold, wet, or windy it might be!

Date:

Astronomy

Sep. 23, 2012 Rise Set
Actual Time 6:50 AM AKDT 6:56 PM AKDT
Civil Twilight 6:09 AM AKDT 7:37 PM AKDT
Nautical Twilight 5:21 AM AKDT 8:25 PM AKDT
Astronomical Twilight 4:28 AM AKDT 9:17 PM AKDT
Moon 4:18 PM AKDT (9/23) No Moon Set
Length of Visible Light 13h 27m
Length of Day
12h 06m
First Quarter, 61% of the Moon is Illuminated
Sep 23
First Quarter
Sep 29
Full
Oct 7
Last Quarter
Oct 15
New
Oct 21
First Quarter

Hourly Weather History & Observations

Time (AKDT) Temp. Dew Point Humidity Pressure Visibility Wind Dir Wind Speed Gust Speed Precip Events Conditions
12:54 AM 54.0 °F 48.9 °F 83% 29.94 in 10.0 mi East 16.1 mph 27.6 mph N/A   Overcast
1:54 AM 53.1 °F 48.9 °F 86% 29.95 in 10.0 mi ENE 18.4 mph 32.2 mph N/A   Overcast
2:25 AM 53.6 °F 48.2 °F 82% 29.94 in 10.0 mi East 13.8 mph 27.6 mph N/A   Overcast
2:41 AM 53.6 °F 48.2 °F 82% 29.95 in 10.0 mi ENE 16.1 mph 27.6 mph N/A   Overcast
2:54 AM 53.1 °F 48.9 °F 86% 29.96 in 10.0 mi East 12.7 mph 29.9 mph N/A   Overcast
3:54 AM 53.1 °F 48.9 °F 86% 29.96 in 10.0 mi East 13.8 mph 25.3 mph N/A   Overcast
4:54 AM 53.1 °F 48.9 °F 86% 29.96 in 10.0 mi ENE 15.0 mph 29.9 mph N/A   Overcast
5:54 AM 54.0 °F 48.9 °F 83% 29.96 in 10.0 mi East 12.7 mph 23.0 mph N/A   Overcast
6:02 AM 53.6 °F 48.2 °F 82% 29.95 in 10.0 mi East 11.5 mph 21.9 mph N/A   Mostly Cloudy
6:22 AM 53.6 °F 48.2 °F 82% 29.95 in 10.0 mi ENE 15.0 mph 23.0 mph N/A   Overcast
6:54 AM 54.0 °F 48.9 °F 83% 29.96 in 10.0 mi East 11.5 mph 21.9 mph N/A   Overcast
7:41 AM 53.6 °F 48.2 °F 82% 29.95 in 10.0 mi East 12.7 mph 23.0 mph N/A   Overcast
7:54 AM 54.0 °F 48.9 °F 83% 29.96 in 10.0 mi ENE 16.1 mph 23.0 mph N/A   Overcast
8:54 AM 54.0 °F 48.9 °F 83% 29.97 in 10.0 mi East 10.4 mph 25.3 mph N/A   Mostly Cloudy
9:54 AM 54.0 °F 48.9 °F 83% 29.98 in 10.0 mi East 11.5 mph 24.2 mph N/A   Scattered Clouds
10:15 AM 53.6 °F 48.2 °F 82% 29.96 in 10.0 mi East 11.5 mph 19.6 mph N/A   Mostly Cloudy
10:54 AM 57.0 °F 48.9 °F 74% 29.97 in 10.0 mi East 11.5 mph 20.7 mph N/A   Overcast
11:26 AM 55.4 °F 50.0 °F 82% 29.95 in 10.0 mi East 13.8 mph 20.7 mph 0.00 in   Overcast
11:54 AM 55.9 °F 48.9 °F 77% 29.96 in 10.0 mi ENE 15.0 mph 23.0 mph 0.00 in   Overcast
12:20 PM 55.4 °F 50.0 °F 82% 29.95 in 8.0 mi ENE 10.4 mph 23.0 mph 0.01 in Rain Light Rain
12:38 PM 53.6 °F 51.8 °F 94% 29.96 in 10.0 mi East 13.8 mph 21.9 mph 0.02 in Rain Light Rain
12:54 PM 57.0 °F 53.1 °F 87% 29.97 in 10.0 mi East 16.1 mph 21.9 mph 0.02 in   Overcast
1:54 PM 57.0 °F 51.1 °F 81% 29.96 in 10.0 mi East 12.7 mph 20.7 mph N/A   Overcast
2:54 PM 55.0 °F 51.1 °F 86% 29.97 in 10.0 mi East 11.5 mph 23.0 mph N/A   Overcast
3:03 PM 55.4 °F 51.8 °F 88% 29.95 in 10.0 mi East 13.8 mph 25.3 mph N/A   Overcast
3:54 PM 55.9 °F 51.1 °F 84% 29.96 in 10.0 mi ESE 13.8 mph 21.9 mph 0.01 in   Mostly Cloudy
4:54 PM 55.0 °F 50.0 °F 83% 29.97 in 10.0 mi ESE 11.5 mph 23.0 mph N/A   Overcast
5:34 PM 53.6 °F 51.8 °F 94% 29.97 in 10.0 mi East 10.4 mph 19.6 mph 0.00 in Rain Light Rain
5:54 PM 53.1 °F 51.1 °F 93% 29.98 in 10.0 mi East 9.2 mph 18.4 mph 0.01 in Rain Light Rain
6:51 PM 53.6 °F 51.8 °F 94% 29.97 in 10.0 mi East 8.1 mph - 0.00 in   Overcast
6:54 PM 54.0 °F 50.0 °F 86% 29.98 in 10.0 mi East 5.8 mph - 0.00 in   Overcast
7:20 PM 53.6 °F 51.8 °F 94% 29.96 in 10.0 mi East 10.4 mph 26.5 mph 0.00 in Rain Light Rain
7:54 PM 53.1 °F 50.0 °F 89% 29.99 in 10.0 mi ESE 11.5 mph 24.2 mph 0.00 in   Overcast
8:18 PM 53.6 °F 50.0 °F 88% 29.98 in 10.0 mi East 8.1 mph 18.4 mph N/A   Overcast
8:54 PM 53.1 °F 50.0 °F 89% 29.99 in 10.0 mi East 9.2 mph 18.4 mph 0.00 in Rain Light Rain
9:54 PM 52.0 °F 50.0 °F 93% 30.03 in 10.0 mi ENE 8.1 mph - 0.01 in Rain Light Rain
10:09 PM 51.8 °F 50.0 °F 94% 30.02 in 10.0 mi East 10.4 mph - 0.00 in Rain Light Rain
10:54 PM 52.0 °F 48.9 °F 89% 30.03 in 10.0 mi East 9.2 mph 16.1 mph 0.00 in   Overcast
11:54 PM 52.0 °F 48.9 °F 89% 30.03 in 10.0 mi ESE 6.9 mph - N/A   Overcast